Time,TemperatureF,DewpointF,PressureIn,WindDirection,WindDirectionDegrees,WindSpeedMPH,WindSpeedGustMPH,Humidity,HourlyPrecipIn,Conditions,Clouds,dailyrainin,SoftwareType,DateUTC
2013-03-01 00:00:00,31.5,23.9,27.88,North,0,5.0,9.0,73,0.00,,,0.05,meteohub,2013-03-01 05:00:00,
2013-03-01 00:01:00,31.5,23.9,27.88,NNW,338,4.0,9.0,73,0.00,,,0.05,meteohub,2013-03-01 05:01:00,
2013-03-01 00:07:00,31.5,23.9,27.88,North,0,8.0,9.0,73,0.00,,,0.00,meteohub,2013-03-01 05:07:00,
2013-03-01 00:12:00,31.3,23.7,27.88,North,0,7.0,11.0,73,0.00,,,0.00,meteohub,2013-03-01 05:12:00,
2013-03-01 00:17:00,31.3,23.7,27.89,North,0,6.0,11.0,73,0.00,,,0.00,meteohub,2013-03-01 05:17:00,
2013-03-01 00:23:00,31.3,23.7,27.88,WNW,293,4.0,11.0,73,0.00,,,0.00,meteohub,2013-03-01 05:23:00,
2013-03-01 00:28:00,31.3,23.7,27.88,NNW,338,8.0,10.0,73,0.00,,,0.00,meteohub,2013-03-01 05:28:00,
2013-03-01 00:33:00,31.3,23.7,27.88,North,0,9.0,9.0,73,0.00,,,0.00,meteohub,2013-03-01 05:33:00,
2013-03-01 00:38:00,31.1,23.5,27.89,WNW,293,7.0,10.0,73,0.00,,,0.00,meteohub,2013-03-01 05:38:00,
2013-03-01 00:43:00,31.1,23.5,27.88,NW,315,4.0,10.0,73,0.00,,,0.00,meteohub,2013-03-01 05:43:00,
2013-03-01 00:48:00,31.1,23.5,27.88,North,0,4.0,10.0,73,0.00,,,0.00,meteohub,2013-03-01 05:48:00,
2013-03-01 00:53:00,31.1,23.5,27.89,North,0,9.0,9.0,73,0.00,,,0.00,meteohub,2013-03-01 05:53:00,
2013-03-01 00:59:00,31.1,23.5,27.89,NNW,338,5.0,9.0,73,0.00,,,0.00,meteohub,2013-03-01 05:59:00,
2013-03-01 01:04:00,30.9,23.4,27.89,North,0,9.0,9.0,73,0.00,,,0.00,meteohub,2013-03-01 06:04:00,
2013-03-01 01:09:00,31.1,23.5,27.89,NW,315,4.0,9.0,73,0.00,,,0.00,meteohub,2013-03-01 06:09:00,
2013-03-01 01:14:00,31.1,23.5,27.89,SW,225,6.0,12.0,73,0.00,,,0.00,meteohub,2013-03-01 06:14:00,
2013-03-01 01:20:00,31.1,23.5,27.89,NW,315,8.0,12.0,73,0.00,,,0.00,meteohub,2013-03-01 06:20:00,
2013-03-01 01:25:00,30.9,23.4,27.89,NW,315,8.0,12.0,73,0.00,,,0.00,meteohub,2013-03-01 06:25:00,
2013-03-01 01:30:00,30.9,23.0,27.89,NW,315,9.0,9.0,72,0.00,,,0.00,meteohub,2013-03-01 06:30:00,
2013-03-01 01:35:00,30.9,23.0,27.89,NW,315,13.0,13.0,72,0.00,,,0.00,meteohub,2013-03-01 06:35:00,
2013-03-01 01:40:00,30.9,23.0,27.89,North,0,10.0,13.0,72,0.00,,,0.00,meteohub,2013-03-01 06:40:00,
2013-03-01 01:45:00,31.1,22.8,27.89,NNW,338,5.0,13.0,71,0.00,,,0.00,meteohub,2013-03-01 06:45:00,
2013-03-01 01:50:00,31.1,22.8,27.89,North,0,4.0,13.0,71,0.00,,,0.00,meteohub,2013-03-01 06:50:00,
2013-03-01 01:55:00,31.1,22.8,27.89,West,270,10.0,10.0,71,0.00,,,0.00,meteohub,2013-03-01 06:55:00,
2013-03-01 02:00:00,31.1,23.2,27.89,North,0,7.0,10.0,72,0.00,,,0.00,meteohub,2013-03-01 07:00:00,
2013-03-01 02:06:00,31.1,23.2,27.89,NNW,338,6.0,10.0,72,0.00,,,0.00,meteohub,2013-03-01 07:06:00,
2013-03-01 02:11:00,31.1,23.2,27.89,North,0,6.0,10.0,72,0.00,,,0.00,meteohub,2013-03-01 07:11:00,
2013-03-01 02:16:00,30.9,23.0,27.89,North,0,8.0,10.0,72,0.00,,,0.00,meteohub,2013-03-01 07:16:00,
2013-03-01 02:21:00,30.9,23.0,27.89,NW,315,6.0,10.0,72,0.00,,,0.00,meteohub,2013-03-01 07:21:00,
2013-03-01 02:26:00,30.9,23.0,27.89,NW,315,8.0,10.0,72,0.00,,,0.00,meteohub,2013-03-01 07:26:00,
2013-03-01 02:31:00,30.9,23.0,27.88,NW,315,8.0,9.0,72,0.00,,,0.00,meteohub,2013-03-01 07:31:00,
2013-03-01 02:36:00,30.9,23.0,27.89,NW,315,10.0,10.0,72,0.00,,,0.00,meteohub,2013-03-01 07:36:00,
2013-03-01 02:41:00,30.9,23.0,27.89,West,270,8.0,10.0,72,0.00,,,0.00,meteohub,2013-03-01 07:41:00,
2013-03-01 02:46:00,30.7,22.8,27.88,NW,315,8.0,10.0,72,0.00,,,0.00,meteohub,2013-03-01 07:46:00,
2013-03-01 02:52:00,30.7,22.8,27.89,NW,315,8.0,10.0,72,0.00,,,0.00,meteohub,2013-03-01 07:52:00,
2013-03-01 02:57:00,30.7,22.8,27.88,SW,225,11.0,11.0,72,0.00,,,0.00,meteohub,2013-03-01 07:57:00,
2013-03-01 03:02:00,30.7,22.8,27.88,North,0,4.0,11.0,72,0.00,,,0.00,meteohub,2013-03-01 08:02:00,
2013-03-01 03:07:00,30.9,22.6,27.88,North,0,7.0,11.0,71,0.00,,,0.00,meteohub,2013-03-01 08:07:00,
2013-03-01 03:12:00,30.9,22.6,27.88,NW,315,7.0,11.0,71,0.00,,,0.00,meteohub,2013-03-01 08:12:00,
2013-03-01 03:17:00,30.9,22.6,27.88,NW,315,8.0,11.0,71,0.00,,,0.00,meteohub,2013-03-01 08:17:00,
2013-03-01 03:22:00,30.7,22.5,27.88,NW,315,3.0,11.0,71,0.00,,,0.00,meteohub,2013-03-01 08:22:00,
2013-03-01 03:27:00,30.7,22.5,27.88,NW,315,5.0,9.0,71,0.00,,,0.00,meteohub,2013-03-01 08:27:00,
2013-03-01 03:32:00,30.7,22.5,27.88,North,0,8.0,10.0,71,0.00,,,0.00,meteohub,2013-03-01 08:32:00,
2013-03-01 03:37:00,30.7,22.5,27.88,NW,315,11.0,11.0,71,0.00,,,0.00,meteohub,2013-03-01 08:37:00,
2013-03-01 03:42:00,30.7,22.5,27.89,NW,315,5.0,11.0,71,0.00,,,0.00,meteohub,2013-03-01 08:42:00,
2013-03-01 03:47:00,30.7,22.5,27.89,North,0,7.0,11.0,71,0.00,,,0.00,meteohub,2013-03-01 08:47:00,
2013-03-01 03:52:00,30.7,22.5,27.89,NW,315,10.0,11.0,71,0.00,,,0.00,meteohub,2013-03-01 08:52:00,
2013-03-01 03:58:00,30.7,22.5,27.89,North,0,4.0,10.0,71,0.00,,,0.00,meteohub,2013-03-01 08:58:00,
2013-03-01 04:03:00,30.7,22.5,27.89,NW,315,5.0,10.0,71,0.00,,,0.00,meteohub,2013-03-01 09:03:00,
2013-03-01 04:08:00,30.7,22.5,27.89,WNW,293,7.0,10.0,71,0.00,,,0.00,meteohub,2013-03-01 09:08:00,
2013-03-01 04:13:00,30.7,22.1,27.89,North,0,6.0,9.0,70,0.00,,,0.00,meteohub,2013-03-01 09:13:00,
2013-03-01 04:18:00,30.9,22.3,27.90,North,0,6.0,9.0,70,0.00,,,0.00,meteohub,2013-03-01 09:18:00,
2013-03-01 04:23:00,30.9,22.3,27.90,North,0,5.0,10.0,70,0.00,,,0.00,meteohub,2013-03-01 09:23:00,
2013-03-01 04:28:00,30.9,22.3,27.90,North,0,6.0,10.0,70,0.00,,,0.00,meteohub,2013-03-01 09:28:00,
2013-03-01 04:33:00,30.9,22.3,27.90,North,0,10.0,10.0,70,0.00,,,0.00,meteohub,2013-03-01 09:33:00,
2013-03-01 04:38:00,30.9,21.9,27.90,NW,315,5.0,10.0,69,0.00,,,0.00,meteohub,2013-03-01 09:38:00,
2013-03-01 04:44:00,30.9,21.9,27.90,North,0,8.0,10.0,69,0.00,,,0.00,meteohub,2013-03-01 09:44:00,
2013-03-01 04:49:00,30.9,21.9,27.90,North,0,12.0,12.0,69,0.00,,,0.00,meteohub,2013-03-01 09:49:00,
2013-03-01 04:54:00,30.9,21.9,27.89,North,0,6.0,12.0,69,0.00,,,0.00,meteohub,2013-03-01 09:54:00,
2013-03-01 04:59:00,30.9,21.6,27.90,North,0,4.0,12.0,68,0.00,,,0.00,meteohub,2013-03-01 09:59:00,
2013-03-01 05:04:00,30.7,21.4,27.90,NW,315,4.0,12.0,68,0.00,,,0.00,meteohub,2013-03-01 10:04:00,
2013-03-01 05:09:00,30.6,21.6,27.91,NW,315,2.0,8.0,69,0.00,,,0.00,meteohub,2013-03-01 10:09:00,
2013-03-01 05:14:00,30.4,21.4,27.90,North,0,4.0,7.0,69,0.00,,,0.00,meteohub,2013-03-01 10:14:00,
2013-03-01 05:19:00,30.4,21.4,27.91,North,0,3.0,6.0,69,0.00,,,0.00,meteohub,2013-03-01 10:19:00,
2013-03-01 05:24:00,30.2,21.6,27.91,North,0,3.0,5.0,70,0.00,,,0.00,meteohub,2013-03-01 10:24:00,
2013-03-01 05:29:00,30.2,21.6,27.91,North,0,2.0,7.0,70,0.00,,,0.00,meteohub,2013-03-01 10:29:00,
2013-03-01 05:35:00,30.2,21.6,27.91,NW,315,7.0,7.0,70,0.00,,,0.00,meteohub,2013-03-01 10:35:00,
2013-03-01 05:40:00,30.4,21.7,27.92,NW,315,5.0,7.0,70,0.00,,,0.00,meteohub,2013-03-01 10:40:00,
2013-03-01 05:45:00,30.4,21.7,27.91,NW,315,6.0,7.0,70,0.00,,,0.00,meteohub,2013-03-01 10:45:00,
2013-03-01 05:50:00,30.6,21.6,27.92,NW,315,4.0,6.0,69,0.00,,,0.00,meteohub,2013-03-01 10:50:00,
2013-03-01 05:55:00,30.4,21.7,27.92,NW,315,4.0,6.0,70,0.00,,,0.00,meteohub,2013-03-01 10:55:00,
2013-03-01 06:00:00,30.6,21.9,27.92,NW,315,4.0,6.0,70,0.00,,,0.00,meteohub,2013-03-01 11:00:00,
2013-03-01 06:06:00,30.6,22.3,27.92,North,0,4.0,6.0,71,0.00,,,0.00,meteohub,2013-03-01 11:06:00,
2013-03-01 06:11:00,30.6,22.3,27.92,North,0,5.0,10.0,71,0.00,,,0.00,meteohub,2013-03-01 11:11:00,
2013-03-01 06:16:00,30.7,22.5,27.92,NW,315,8.0,10.0,71,0.00,,,0.00,meteohub,2013-03-01 11:16:00,
2013-03-01 06:21:00,30.7,22.5,27.92,North,0,5.0,10.0,71,0.00,,,0.00,meteohub,2013-03-01 11:21:00,
2013-03-01 06:26:00,30.9,22.6,27.92,NW,315,3.0,8.0,71,0.00,,,0.00,meteohub,2013-03-01 11:26:00,
2013-03-01 06:31:00,30.9,22.6,27.92,NW,315,9.0,10.0,71,0.00,,,0.00,meteohub,2013-03-01 11:31:00,
2013-03-01 06:36:00,30.9,22.6,27.93,NW,315,6.0,10.0,71,0.00,,,0.00,meteohub,2013-03-01 11:36:00,
2013-03-01 06:41:00,30.9,23.0,27.93,North,0,5.0,10.0,72,0.00,,,0.00,meteohub,2013-03-01 11:41:00,
2013-03-01 06:47:00,30.9,23.0,27.92,North,0,5.0,9.0,72,0.00,,,0.00,meteohub,2013-03-01 11:47:00,
2013-03-01 06:52:00,30.9,23.0,27.92,North,0,7.0,7.0,72,0.00,,,0.00,meteohub,2013-03-01 11:52:00,
2013-03-01 06:57:00,30.9,23.0,27.93,NW,315,4.0,7.0,72,0.00,,,0.00,meteohub,2013-03-01 11:57:00,
2013-03-01 07:02:00,30.9,23.0,27.94,NW,315,4.0,7.0,72,0.00,,,0.00,meteohub,2013-03-01 12:02:00,
2013-03-01 07:07:00,31.1,23.2,27.93,NW,315,4.0,7.0,72,0.00,,,0.00,meteohub,2013-03-01 12:07:00,
2013-03-01 07:12:00,31.1,23.2,27.94,North,0,4.0,5.0,72,0.00,,,0.00,meteohub,2013-03-01 12:12:00,
2013-03-01 07:17:00,31.1,23.2,27.94,NW,315,4.0,7.0,72,0.00,,,0.00,meteohub,2013-03-01 12:17:00,
2013-03-01 07:22:00,31.1,23.2,27.93,NW,315,4.0,7.0,72,0.00,,,0.00,meteohub,2013-03-01 12:22:00,
2013-03-01 07:27:00,31.1,23.2,27.93,North,0,5.0,8.0,72,0.00,,,0.00,meteohub,2013-03-01 12:27:00,
2013-03-01 07:32:00,31.1,23.2,27.93,West,270,5.0,8.0,72,0.00,,,0.00,meteohub,2013-03-01 12:32:00,
2013-03-01 07:37:00,31.1,23.2,27.94,NW,315,3.0,8.0,72,0.00,,,0.00,meteohub,2013-03-01 12:37:00,
2013-03-01 07:42:00,31.1,23.2,27.94,North,0,5.0,8.0,72,0.00,,,0.00,meteohub,2013-03-01 12:42:00,
2013-03-01 07:47:00,31.1,23.2,27.94,North,0,5.0,8.0,72,0.00,,,0.00,meteohub,2013-03-01 12:47:00,
2013-03-01 07:52:00,31.1,23.2,27.94,NW,315,3.0,8.0,72,0.00,,,0.00,meteohub,2013-03-01 12:52:00,
2013-03-01 07:57:00,31.1,23.2,27.94,West,270,3.0,6.0,72,0.00,,,0.00,meteohub,2013-03-01 12:57:00,
2013-03-01 08:02:00,31.1,23.2,27.94,North,0,4.0,6.0,72,0.00,,,0.00,meteohub,2013-03-01 13:02:00,
2013-03-01 08:07:00,31.3,23.4,27.94,NW,315,4.0,7.0,72,0.00,,,0.00,meteohub,2013-03-01 13:07:00,
2013-03-01 08:12:00,31.1,23.2,27.94,NW,315,2.0,7.0,72,0.00,,,0.00,meteohub,2013-03-01 13:12:00,
2013-03-01 08:17:00,31.3,23.4,27.95,West,270,5.0,7.0,72,0.00,,,0.00,meteohub,2013-03-01 13:17:00,
2013-03-01 08:22:00,31.1,23.2,27.95,NW,315,3.0,7.0,72,0.00,,,0.00,meteohub,2013-03-01 13:22:00,
2013-03-01 08:27:00,31.3,23.4,27.94,North,0,5.0,8.0,72,0.00,,,0.00,meteohub,2013-03-01 13:27:00,
2013-03-01 08:32:00,31.3,23.4,27.95,North,0,9.0,9.0,72,0.00,,,0.00,meteohub,2013-03-01 13:32:00,
2013-03-01 08:37:00,31.3,23.4,27.94,NW,315,8.0,10.0,72,0.00,,,0.00,meteohub,2013-03-01 13:37:00,
2013-03-01 08:42:00,31.3,23.4,27.95,North,0,11.0,11.0,72,0.00,,,0.00,meteohub,2013-03-01 13:42:00,
2013-03-01 08:48:00,31.5,23.5,27.95,North,0,7.0,11.0,72,0.00,,,0.00,meteohub,2013-03-01 13:48:00,
2013-03-01 08:53:00,31.5,23.2,27.95,North,0,9.0,11.0,71,0.00,,,0.00,meteohub,2013-03-01 13:53:00,
2013-03-01 08:58:00,31.6,23.4,27.95,North,0,11.0,11.0,71,0.00,,,0.00,meteohub,2013-03-01 13:58:00,
2013-03-01 09:03:00,31.5,23.2,27.95,NW,315,4.0,11.0,71,0.00,,,0.00,meteohub,2013-03-01 14:03:00,
2013-03-01 09:08:00,31.5,23.2,27.95,North,0,8.0,11.0,71,0.00,,,0.00,meteohub,2013-03-01 14:08:00,
2013-03-01 09:13:00,31.5,23.2,27.95,North,0,7.0,12.0,71,0.00,,,0.00,meteohub,2013-03-01 14:13:00,
2013-03-01 09:18:00,31.3,23.0,27.96,NW,315,4.0,12.0,71,0.00,,,0.00,meteohub,2013-03-01 14:18:00,
2013-03-01 09:23:00,31.3,23.4,27.96,NW,315,13.0,13.0,72,0.00,,,0.00,meteohub,2013-03-01 14:23:00,
2013-03-01 09:28:00,31.5,23.5,27.96,North,0,5.0,13.0,72,0.00,,,0.00,meteohub,2013-03-01 14:28:00,
2013-03-01 09:33:00,31.5,23.5,27.95,North,0,7.0,13.0,72,0.00,,,0.00,meteohub,2013-03-01 14:33:00,
2013-03-01 09:39:00,31.6,23.7,27.96,NW,315,6.0,13.0,72,0.00,,,0.00,meteohub,2013-03-01 14:39:00,
2013-03-01 09:44:00,31.6,23.4,27.95,NNW,338,11.0,12.0,71,0.00,,,0.00,meteohub,2013-03-01 14:44:00,
2013-03-01 09:49:00,31.8,23.5,27.96,North,0,9.0,12.0,71,0.00,,,0.00,meteohub,2013-03-01 14:49:00,
2013-03-01 09:54:00,32.0,23.0,27.96,North,0,8.0,12.0,69,0.00,,,0.00,meteohub,2013-03-01 14:54:00,
2013-03-01 09:59:00,32.0,22.6,27.95,North,0,9.0,13.0,68,0.00,,,0.00,meteohub,2013-03-01 14:59:00,
2013-03-01 10:04:00,32.0,22.6,27.96,North,0,12.0,13.0,68,0.00,,,0.00,meteohub,2013-03-01 15:04:00,
2013-03-01 10:09:00,32.0,22.6,27.96,North,0,9.0,14.0,68,0.00,,,0.00,meteohub,2013-03-01 15:09:00,
2013-03-01 10:14:00,32.2,22.8,27.96,SSW,203,2.0,14.0,68,0.00,,,0.00,meteohub,2013-03-01 15:14:00,
2013-03-01 10:19:00,32.7,23.4,27.95,NW,315,4.0,14.0,68,0.00,,,0.00,meteohub,2013-03-01 15:19:00,
2013-03-01 10:24:00,33.3,23.2,27.96,North,0,8.0,13.0,66,0.00,,,0.00,meteohub,2013-03-01 15:24:00,
2013-03-01 10:29:00,33.6,23.5,27.96,North,0,7.0,10.0,66,0.00,,,0.00,meteohub,2013-03-01 15:29:00,
2013-03-01 10:34:00,33.4,23.0,27.96,NW,315,11.0,11.0,65,0.00,,,0.00,meteohub,2013-03-01 15:34:00,
2013-03-01 10:40:00,33.3,22.5,27.95,North,0,2.0,11.0,64,0.00,,,0.00,meteohub,2013-03-01 15:40:00,
2013-03-01 10:45:00,33.3,22.5,27.96,North,0,10.0,11.0,64,0.00,,,0.00,meteohub,2013-03-01 15:45:00,
2013-03-01 10:50:00,33.1,22.3,27.96,WNW,293,8.0,11.0,64,0.00,,,0.00,meteohub,2013-03-01 15:50:00,
2013-03-01 10:55:00,33.4,22.3,27.96,NW,315,8.0,11.0,63,0.00,,,0.00,meteohub,2013-03-01 15:55:00,
2013-03-01 11:00:00,33.8,21.7,27.95,North,0,4.0,10.0,61,0.00,,,0.00,meteohub,2013-03-01 16:00:00,
2013-03-01 11:05:00,34.2,21.7,27.95,North,0,8.0,10.0,60,0.00,,,0.00,meteohub,2013-03-01 16:05:00,
2013-03-01 11:10:00,34.2,21.4,27.96,North,0,10.0,10.0,59,0.00,,,0.00,meteohub,2013-03-01 16:10:00,
2013-03-01 11:15:00,34.2,20.8,27.95,NW,315,8.0,12.0,58,0.00,,,0.00,meteohub,2013-03-01 16:15:00,
2013-03-01 11:20:00,34.7,21.4,27.96,NE,45,10.0,12.0,58,0.00,,,0.00,meteohub,2013-03-01 16:20:00,
2013-03-01 11:25:00,35.1,21.7,27.96,North,0,6.0,12.0,58,0.00,,,0.00,meteohub,2013-03-01 16:25:00,
2013-03-01 11:30:00,35.1,21.4,27.95,North,0,9.0,12.0,57,0.00,,,0.00,meteohub,2013-03-01 16:30:00,
2013-03-01 11:36:00,34.9,21.2,27.95,NNW,338,11.0,12.0,57,0.00,,,0.00,meteohub,2013-03-01 16:36:00,
2013-03-01 11:41:00,34.3,21.0,27.96,North,0,7.0,11.0,58,0.00,,,0.00,meteohub,2013-03-01 16:41:00,
2013-03-01 11:46:00,34.2,21.4,27.96,North,0,7.0,11.0,59,0.00,,,0.00,meteohub,2013-03-01 16:46:00,
2013-03-01 11:51:00,34.2,20.8,27.96,NW,315,8.0,11.0,58,0.00,,,0.00,meteohub,2013-03-01 16:51:00,
2013-03-01 11:56:00,34.0,21.2,27.96,NNW,338,8.0,12.0,59,0.00,,,0.00,meteohub,2013-03-01 16:56:00,
2013-03-01 12:01:00,33.6,21.6,27.96,North,0,8.0,16.0,61,0.00,,,0.00,meteohub,2013-03-01 17:01:00,
2013-03-01 12:07:00,33.4,21.4,27.96,North,0,14.0,16.0,61,0.00,,,0.00,meteohub,2013-03-01 17:07:00,
2013-03-01 12:12:00,33.4,21.7,27.95,North,0,12.0,16.0,62,0.00,,,0.00,meteohub,2013-03-01 17:12:00,
2013-03-01 12:17:00,33.8,22.1,27.96,NNE,23,9.0,16.0,62,0.00,,,0.00,meteohub,2013-03-01 17:17:00,
2013-03-01 12:22:00,34.2,22.1,27.96,North,0,8.0,16.0,61,0.00,,,0.00,meteohub,2013-03-01 17:22:00,
2013-03-01 12:27:00,34.5,22.5,27.95,NNW,338,10.0,12.0,61,0.00,,,0.00,meteohub,2013-03-01 17:27:00,
2013-03-01 12:32:00,34.5,22.1,27.95,NNW,338,8.0,11.0,60,0.00,,,0.00,meteohub,2013-03-01 17:32:00,
2013-03-01 12:37:00,35.1,22.6,27.96,WSW,248,11.0,11.0,60,0.00,,,0.00,meteohub,2013-03-01 17:37:00,
2013-03-01 12:42:00,35.4,22.1,27.96,North,0,10.0,12.0,58,0.00,,,0.00,meteohub,2013-03-01 17:42:00,
2013-03-01 12:47:00,35.2,21.6,27.96,North,0,8.0,12.0,57,0.00,,,0.00,meteohub,2013-03-01 17:47:00,
2013-03-01 12:52:00,34.9,21.2,27.96,NW,315,8.0,12.0,57,0.00,,,0.00,meteohub,2013-03-01 17:52:00,
2013-03-01 12:57:00,34.5,20.8,27.95,NW,315,8.0,13.0,57,0.00,,,0.00,meteohub,2013-03-01 17:57:00,
2013-03-01 13:02:00,34.5,21.2,27.95,NE,45,11.0,13.0,58,0.00,,,0.00,meteohub,2013-03-01 18:02:00,
2013-03-01 13:07:00,34.3,20.7,27.95,East,90,5.0,13.0,57,0.00,,,0.00,meteohub,2013-03-01 18:07:00,
2013-03-01 13:12:00,34.3,20.7,27.96,North,0,7.0,11.0,57,0.00,,,0.00,meteohub,2013-03-01 18:12:00,
2013-03-01 13:17:00,34.3,20.7,27.96,North,0,9.0,11.0,57,0.00,,,0.00,meteohub,2013-03-01 18:17:00,
2013-03-01 13:22:00,34.2,19.8,27.96,NNW,338,10.0,11.0,55,0.00,,,0.00,meteohub,2013-03-01 18:22:00,
2013-03-01 13:27:00,34.2,19.8,27.96,North,0,7.0,13.0,55,0.00,,,0.00,meteohub,2013-03-01 18:27:00,
2013-03-01 13:32:00,34.2,20.1,27.96,North,0,9.0,13.0,56,0.00,,,0.00,meteohub,2013-03-01 18:32:00,
2013-03-01 13:37:00,34.0,20.3,27.96,NNE,23,6.0,13.0,57,0.00,,,0.00,meteohub,2013-03-01 18:37:00,
2013-03-01 13:42:00,34.0,20.3,27.96,NW,315,10.0,12.0,57,0.00,,,0.00,meteohub,2013-03-01 18:42:00,
2013-03-01 13:47:00,34.0,20.3,27.96,North,0,16.0,16.0,57,0.00,,,0.00,meteohub,2013-03-01 18:47:00,
2013-03-01 13:52:00,34.2,20.1,27.95,NW,315,8.0,16.0,56,0.00,,,0.00,meteohub,2013-03-01 18:52:00,
2013-03-01 13:57:00,34.3,20.3,27.96,NW,315,15.0,16.0,56,0.00,,,0.00,meteohub,2013-03-01 18:57:00,
2013-03-01 14:02:00,34.5,19.9,27.95,NW,315,7.0,16.0,55,0.00,,,0.00,meteohub,2013-03-01 19:02:00,
2013-03-01 14:07:00,34.7,19.8,27.96,North,0,11.0,15.0,54,0.00,,,0.00,meteohub,2013-03-01 19:07:00,
2013-03-01 14:12:00,34.5,19.6,27.96,NE,45,9.0,15.0,54,0.00,,,0.00,meteohub,2013-03-01 19:12:00,
2013-03-01 14:17:00,34.3,19.4,27.95,North,0,11.0,15.0,54,0.00,,,0.00,meteohub,2013-03-01 19:17:00,
2013-03-01 14:22:00,34.5,19.6,27.95,North,0,15.0,15.0,54,0.00,,,0.00,meteohub,2013-03-01 19:22:00,
2013-03-01 14:27:00,34.3,19.4,27.95,North,0,13.0,15.0,54,0.00,,,0.00,meteohub,2013-03-01 19:27:00,
2013-03-01 14:32:00,34.5,19.9,27.95,NW,315,10.0,15.0,55,0.00,,,0.00,meteohub,2013-03-01 19:32:00,
2013-03-01 14:38:00,34.5,20.5,27.94,North,0,8.0,17.0,56,0.00,,,0.00,meteohub,2013-03-01 19:38:00,
2013-03-01 14:43:00,34.5,20.8,27.95,NNW,338,14.0,17.0,57,0.00,,,0.00,meteohub,2013-03-01 19:43:00,
2013-03-01 14:48:00,34.3,20.7,27.95,NW,315,9.0,17.0,57,0.00,,,0.00,meteohub,2013-03-01 19:48:00,
2013-03-01 14:53:00,34.5,20.8,27.95,NW,315,11.0,14.0,57,0.00,,,0.00,meteohub,2013-03-01 19:53:00,
2013-03-01 14:58:00,34.5,20.8,27.96,North,0,8.0,14.0,57,0.00,,,0.00,meteohub,2013-03-01 19:58:00,
2013-03-01 15:03:00,34.3,20.7,27.96,NE,45,9.0,14.0,57,0.00,,,0.00,meteohub,2013-03-01 20:03:00,
2013-03-01 15:08:00,34.2,20.8,27.96,NNW,338,11.0,15.0,58,0.00,,,0.00,meteohub,2013-03-01 20:08:00,
2013-03-01 15:13:00,33.8,21.0,27.96,North,0,8.0,15.0,59,0.00,,,0.00,meteohub,2013-03-01 20:13:00,
2013-03-01 15:19:00,33.6,21.6,27.95,North,0,17.0,17.0,61,0.00,,,0.00,meteohub,2013-03-01 20:19:00,
2013-03-01 15:24:00,33.3,21.7,27.95,NW,315,6.0,17.0,62,0.00,,,0.00,meteohub,2013-03-01 20:24:00,
2013-03-01 15:29:00,33.1,21.6,27.96,West,270,8.0,17.0,62,0.00,,,0.00,meteohub,2013-03-01 20:29:00,
2013-03-01 15:34:00,33.1,21.6,27.96,North,0,17.0,17.0,62,0.00,,,0.00,meteohub,2013-03-01 20:34:00,
2013-03-01 15:39:00,33.3,21.7,27.96,NW,315,4.0,17.0,62,0.00,,,0.00,meteohub,2013-03-01 20:39:00,
2013-03-01 15:44:00,33.4,21.7,27.96,North,0,10.0,17.0,62,0.00,,,0.00,meteohub,2013-03-01 20:44:00,
2013-03-01 15:49:00,33.4,21.7,27.96,North,0,14.0,17.0,62,0.00,,,0.00,meteohub,2013-03-01 20:49:00,
2013-03-01 15:54:00,33.1,21.9,27.96,North,0,11.0,14.0,63,0.00,,,0.00,meteohub,2013-03-01 20:54:00,
2013-03-01 15:59:00,32.9,21.7,27.96,North,0,9.0,14.0,63,0.00,,,0.00,meteohub,2013-03-01 20:59:00,
2013-03-01 16:04:00,32.7,21.9,27.96,North,0,15.0,15.0,64,0.00,,,0.00,meteohub,2013-03-01 21:04:00,
2013-03-01 16:10:00,32.5,21.7,27.96,NE,45,9.0,15.0,64,0.00,,,0.00,meteohub,2013-03-01 21:10:00,
2013-03-01 16:15:00,32.5,21.7,27.96,North,0,10.0,18.0,64,0.00,,,0.00,meteohub,2013-03-01 21:15:00,
2013-03-01 16:20:00,32.5,21.7,27.96,North,0,9.0,18.0,64,0.00,,,0.00,meteohub,2013-03-01 21:20:00,
2013-03-01 16:25:00,32.5,21.7,27.97,North,0,15.0,17.0,64,0.00,,,0.00,meteohub,2013-03-01 21:25:00,
2013-03-01 16:30:00,32.5,21.7,27.97,North,0,11.0,17.0,64,0.00,,,0.00,meteohub,2013-03-01 21:30:00,
2013-03-01 16:35:00,32.4,21.6,27.97,North,0,12.0,17.0,64,0.00,,,0.00,meteohub,2013-03-01 21:35:00,
2013-03-01 16:40:00,32.4,21.6,27.98,WNW,293,11.0,16.0,64,0.00,,,0.00,meteohub,2013-03-01 21:40:00,
2013-03-01 16:45:00,32.2,21.4,27.98,North,0,8.0,19.0,64,0.00,,,0.00,meteohub,2013-03-01 21:45:00,
2013-03-01 16:51:00,32.2,21.7,27.98,North,0,6.0,19.0,65,0.00,,,0.00,meteohub,2013-03-01 21:51:00,
2013-03-01 16:56:00,32.0,21.2,27.98,North,0,11.0,19.0,64,0.00,,,0.00,meteohub,2013-03-01 21:56:00,
2013-03-01 17:01:00,32.0,21.2,27.98,North,0,11.0,15.0,64,0.00,,,0.00,meteohub,2013-03-01 22:01:00,
2013-03-01 17:06:00,31.8,21.4,27.98,North,0,8.0,15.0,65,0.00,,,0.00,meteohub,2013-03-01 22:06:00,
2013-03-01 17:11:00,31.8,21.7,27.99,North,0,7.0,15.0,66,0.00,,,0.00,meteohub,2013-03-01 22:11:00,
2013-03-01 17:16:00,31.6,21.6,27.99,North,0,7.0,11.0,66,0.00,,,0.00,meteohub,2013-03-01 22:16:00,
2013-03-01 17:21:00,31.5,21.7,27.99,North,0,6.0,11.0,67,0.00,,,0.00,meteohub,2013-03-01 22:21:00,
2013-03-01 17:27:00,31.3,21.9,27.99,NW,315,14.0,14.0,68,0.00,,,0.00,meteohub,2013-03-01 22:27:00,
2013-03-01 17:32:00,31.1,21.7,27.99,North,0,17.0,20.0,68,0.00,,,0.00,meteohub,2013-03-01 22:32:00,
2013-03-01 17:37:00,30.9,21.6,27.99,NW,315,7.0,20.0,68,0.00,,,0.00,meteohub,2013-03-01 22:37:00,
2013-03-01 17:42:00,30.7,21.7,28.00,NNW,338,12.0,20.0,69,0.00,,,0.00,meteohub,2013-03-01 22:42:00,
2013-03-01 17:47:00,30.6,21.6,28.00,NW,315,8.0,17.0,69,0.00,,,0.00,meteohub,2013-03-01 22:47:00,
2013-03-01 17:52:00,30.6,21.6,28.00,WNW,293,7.0,17.0,69,0.00,,,0.00,meteohub,2013-03-01 22:52:00,
2013-03-01 17:57:00,30.4,21.7,28.00,North,0,14.0,19.0,70,0.00,,,0.00,meteohub,2013-03-01 22:57:00,
2013-03-01 18:02:00,30.2,21.9,28.01,NW,315,9.0,19.0,71,0.00,,,0.00,meteohub,2013-03-01 23:02:00,
2013-03-01 18:07:00,30.2,21.9,28.00,NE,45,9.0,19.0,71,0.00,,,0.00,meteohub,2013-03-01 23:07:00,
2013-03-01 18:12:00,30.2,21.9,28.00,North,0,6.0,16.0,71,0.00,,,0.00,meteohub,2013-03-01 23:12:00,
2013-03-01 18:17:00,30.2,21.9,28.00,NW,315,6.0,15.0,71,0.00,,,0.00,meteohub,2013-03-01 23:17:00,
2013-03-01 18:22:00,30.0,22.1,28.01,WNW,293,12.0,15.0,72,0.00,,,0.00,meteohub,2013-03-01 23:22:00,
2013-03-01 18:27:00,30.0,21.4,28.00,North,0,17.0,17.0,70,0.00,,,0.00,meteohub,2013-03-01 23:27:00,
2013-03-01 18:32:00,30.0,21.4,28.00,NNW,338,9.0,17.0,70,0.00,,,0.00,meteohub,2013-03-01 23:32:00,
2013-03-01 18:37:00,30.0,21.4,28.01,North,0,9.0,17.0,70,0.00,,,0.00,meteohub,2013-03-01 23:37:00,
2013-03-01 18:43:00,30.0,21.4,28.01,West,270,8.0,17.0,70,0.00,,,0.00,meteohub,2013-03-01 23:43:00,
2013-03-01 18:48:00,29.8,21.6,28.01,North,0,8.0,15.0,71,0.00,,,0.00,meteohub,2013-03-01 23:48:00,
2013-03-01 18:53:00,29.7,21.4,28.01,NW,315,12.0,16.0,71,0.00,,,0.00,meteohub,2013-03-01 23:53:00,
2013-03-01 18:58:00,29.5,20.8,28.02,NW,315,11.0,16.0,70,0.00,,,0.00,meteohub,2013-03-01 23:58:00,
2013-03-01 19:03:00,29.3,20.7,28.01,North,0,13.0,16.0,70,0.00,,,0.00,meteohub,2013-03-02 00:03:00,
2013-03-01 19:08:00,29.3,20.7,28.02,NW,315,10.0,16.0,70,0.00,,,0.00,meteohub,2013-03-02 00:08:00,
2013-03-01 19:14:00,29.1,20.3,28.02,North,0,17.0,17.0,69,0.00,,,0.00,meteohub,2013-03-02 00:14:00,
2013-03-01 19:19:00,28.9,20.1,28.02,NW,315,15.0,17.0,69,0.00,,,0.00,meteohub,2013-03-02 00:19:00,
2013-03-01 19:24:00,28.9,20.5,28.02,North,0,15.0,17.0,70,0.00,,,0.00,meteohub,2013-03-02 00:24:00,
2013-03-01 19:29:00,28.6,19.8,28.03,North,0,15.0,17.0,69,0.00,,,0.00,meteohub,2013-03-02 00:29:00,
2013-03-01 19:34:00,28.6,20.1,28.03,North,0,21.0,21.0,70,0.00,,,0.00,meteohub,2013-03-02 00:34:00,
2013-03-01 19:39:00,28.2,18.3,28.03,NW,315,8.0,21.0,66,0.00,,,0.00,meteohub,2013-03-02 00:39:00,
2013-03-01 19:44:00,28.0,18.1,28.03,North,0,15.0,21.0,66,0.00,,,0.00,meteohub,2013-03-02 00:44:00,
2013-03-01 19:50:00,27.9,18.3,28.02,North,0,10.0,21.0,67,0.00,,,0.00,meteohub,2013-03-02 00:50:00,
2013-03-01 19:55:00,27.9,18.3,28.03,WNW,293,9.0,16.0,67,0.00,,,0.00,meteohub,2013-03-02 00:55:00,
2013-03-01 20:00:00,27.9,18.3,28.03,NW,315,15.0,16.0,67,0.00,,,0.00,meteohub,2013-03-02 01:00:00,
2013-03-01 20:05:00,27.9,18.7,28.03,NNW,338,11.0,19.0,68,0.00,,,0.00,meteohub,2013-03-02 01:05:00,
2013-03-01 20:10:00,27.7,18.5,28.03,NNW,338,8.0,19.0,68,0.00,,,0.00,meteohub,2013-03-02 01:10:00,
2013-03-01 20:15:00,27.7,18.5,28.03,North,0,9.0,15.0,68,0.00,,,0.00,meteohub,2013-03-02 01:15:00,
2013-03-01 20:20:00,27.7,18.5,28.03,North,0,10.0,11.0,68,0.00,,,0.00,meteohub,2013-03-02 01:20:00,
2013-03-01 20:25:00,27.5,18.3,28.03,WSW,248,6.0,17.0,68,0.00,,,0.00,meteohub,2013-03-02 01:25:00,
2013-03-01 20:30:00,27.3,17.8,28.04,WNW,293,6.0,17.0,67,0.00,,,0.00,meteohub,2013-03-02 01:30:00,
2013-03-01 20:35:00,27.1,17.6,28.03,North,0,18.0,18.0,67,0.00,,,0.00,meteohub,2013-03-02 01:35:00,
2013-03-01 20:40:00,27.3,17.4,28.03,North,0,11.0,18.0,66,0.00,,,0.00,meteohub,2013-03-02 01:40:00,
2013-03-01 20:45:00,27.3,17.8,28.03,WNW,293,8.0,18.0,67,0.00,,,0.00,meteohub,2013-03-02 01:45:00,
2013-03-01 20:50:00,27.1,17.2,28.04,NW,315,9.0,18.0,66,0.00,,,0.00,meteohub,2013-03-02 01:50:00,
2013-03-01 20:56:00,27.1,17.2,28.03,NW,315,10.0,17.0,66,0.00,,,0.00,meteohub,2013-03-02 01:56:00,
2013-03-01 21:01:00,27.1,17.2,28.03,SW,225,6.0,17.0,66,0.00,,,0.00,meteohub,2013-03-02 02:01:00,
2013-03-01 21:06:00,27.1,17.6,28.03,North,0,14.0,14.0,67,0.00,,,0.00,meteohub,2013-03-02 02:06:00,
2013-03-01 21:11:00,27.0,17.4,28.04,North,0,10.0,17.0,67,0.00,,,0.00,meteohub,2013-03-02 02:11:00,
2013-03-01 21:16:00,26.8,17.2,28.04,North,0,9.0,17.0,67,0.00,,,0.00,meteohub,2013-03-02 02:16:00,
2013-03-01 21:21:00,26.6,17.4,28.04,North,0,12.0,17.0,68,0.00,,,0.00,meteohub,2013-03-02 02:21:00,
2013-03-01 21:26:00,26.6,17.4,28.04,NW,315,17.0,17.0,68,0.00,,,0.00,meteohub,2013-03-02 02:26:00,
2013-03-01 21:31:00,26.6,17.1,28.04,NW,315,5.0,17.0,67,0.00,,,0.00,meteohub,2013-03-02 02:31:00,
2013-03-01 21:37:00,26.6,17.4,28.04,NW,315,15.0,17.0,68,0.00,,,0.00,meteohub,2013-03-02 02:37:00,
2013-03-01 21:42:00,26.6,17.4,28.03,NW,315,10.0,17.0,68,0.00,,,0.00,meteohub,2013-03-02 02:42:00,
2013-03-01 21:47:00,26.6,17.4,28.03,North,0,9.0,15.0,68,0.00,,,0.00,meteohub,2013-03-02 02:47:00,
2013-03-01 21:52:00,26.6,17.4,28.04,North,0,11.0,15.0,68,0.00,,,0.00,meteohub,2013-03-02 02:52:00,
2013-03-01 21:57:00,26.4,17.6,28.03,North,0,9.0,15.0,69,0.00,,,0.00,meteohub,2013-03-02 02:57:00,
2013-03-01 22:02:00,26.6,17.4,28.03,WNW,293,14.0,15.0,68,0.00,,,0.00,meteohub,2013-03-02 03:02:00,
2013-03-01 22:07:00,26.6,17.4,28.03,NW,315,13.0,14.0,68,0.00,,,0.00,meteohub,2013-03-02 03:07:00,
2013-03-01 22:12:00,26.4,17.2,28.02,North,0,17.0,17.0,68,0.00,,,0.00,meteohub,2013-03-02 03:12:00,
2013-03-01 22:17:00,26.4,16.9,28.02,NW,315,15.0,17.0,67,0.00,,,0.00,meteohub,2013-03-02 03:17:00,
2013-03-01 22:22:00,26.4,16.9,28.02,NW,315,17.0,20.0,67,0.00,,,0.00,meteohub,2013-03-02 03:22:00,
2013-03-01 22:27:00,26.4,16.9,28.02,NW,315,9.0,20.0,67,0.00,,,0.00,meteohub,2013-03-02 03:27:00,
2013-03-01 22:32:00,26.4,16.5,28.02,North,0,8.0,20.0,66,0.00,,,0.00,meteohub,2013-03-02 03:32:00,
2013-03-01 22:37:00,26.4,16.5,28.03,NW,315,6.0,17.0,66,0.00,,,0.00,meteohub,2013-03-02 03:37:00,
2013-03-01 22:42:00,26.4,16.5,28.02,East,90,10.0,15.0,66,0.00,,,0.00,meteohub,2013-03-02 03:42:00,
2013-03-01 22:47:00,26.6,16.3,28.03,North,0,8.0,14.0,65,0.00,,,0.00,meteohub,2013-03-02 03:47:00,
2013-03-01 22:52:00,26.6,16.0,28.02,NW,315,11.0,14.0,64,0.00,,,0.00,meteohub,2013-03-02 03:52:00,
2013-03-01 22:57:00,26.6,16.0,28.02,North,0,14.0,17.0,64,0.00,,,0.00,meteohub,2013-03-02 03:57:00,
2013-03-01 23:02:00,26.4,16.3,28.02,NW,315,11.0,17.0,65,0.00,,,0.00,meteohub,2013-03-02 04:02:00,
2013-03-01 23:07:00,26.4,16.0,28.02,NNW,338,12.0,17.0,64,0.00,,,0.00,meteohub,2013-03-02 04:07:00,
2013-03-01 23:12:00,26.4,16.0,28.02,North,0,11.0,15.0,64,0.00,,,0.00,meteohub,2013-03-02 04:12:00,
2013-03-01 23:17:00,26.4,16.0,28.02,North,0,11.0,12.0,64,0.00,,,0.00,meteohub,2013-03-02 04:17:00,
2013-03-01 23:22:00,26.4,16.0,28.02,North,0,12.0,15.0,64,0.00,,,0.00,meteohub,2013-03-02 04:22:00,
2013-03-01 23:27:00,26.2,15.8,28.02,North,0,9.0,15.0,64,0.00,,,0.00,meteohub,2013-03-02 04:27:00,
2013-03-01 23:32:00,26.4,16.0,28.02,ENE,68,9.0,15.0,64,0.00,,,0.00,meteohub,2013-03-02 04:32:00,
2013-03-01 23:37:00,26.4,16.0,28.02,NW,315,8.0,15.0,64,0.00,,,0.00,meteohub,2013-03-02 04:37:00,
2013-03-01 23:42:00,26.4,16.0,28.02,North,0,13.0,13.0,64,0.00,,,0.00,meteohub,2013-03-02 04:42:00,
2013-03-01 23:47:00,26.4,16.3,28.02,North,0,12.0,15.0,65,0.00,,,0.00,meteohub,2013-03-02 04:47:00,
2013-03-01 23:52:00,26.2,16.2,28.03,North,0,10.0,15.0,65,0.00,,,0.00,meteohub,2013-03-02 04:52:00,
2013-03-01 23:57:00,26.2,16.2,28.02,North,0,10.0,15.0,65,0.00,,,0.00,meteohub,2013-03-02 04:57:00,